Location: La Brionne
(46.1728°N, 1.7849°E)
Time: 12:04:33
(UTC+00:00)

Max Valier Satellite - Pass Details

Date: 07 April 2023
Orbit: 443 x 457 km, 97.2° (Epoch: 10 June)

Event Time Altitude Azimuth Distance (km) Brightness Sun altitude
Rises 19:17:25 0° 169° (S) 2,433 ? -8.9°
Reaches altitude 10° 19:19:26 10° 171° (S) 1,570 ? -9.2°
Maximum altitude 19:22:48 77° 258° (WSW) 468 ? -9.8°
Drops below altitude 10° 19:26:13 10° 345° (NNW) 1,600 ? -10.3°
Sets 19:28:17 0° 347° (NNW) 2,484 ? -10.6°
